Wind_Speed
40 38 39 44 48 47 46 44 43 42 42 42 41 40 39 40 38 41 45 45 46 37 28 30 27 23 25 27 32 38 42 44 45 44 43 44 44 44 44 42 40 37 35 35 35 36 37 36 35 34 37 42 46 51 54 55 55 55 54 54 54 54 54 54 54 54 54 54 54 54 54 54 54 54 54 55 55 55 55 55 54 54 55 55 55 55
42 39 42 49 50 48 48 48 46 44 44 43 42 41 40 42 40 42 45 45 46 38 29 31 28 22 24 26 30 36 40 45 46 45 44 43 43 45 46 44 42 40 37 37 37 37 38 38 37 35 36 37 39 43 48 52 54 55 55 56 55 55 56 56 56 56 56 56 56 55 55 55 55 55 56 57 57 57 57 57 57 57 56 56 56 56
42 40 47 52 50 50 51 51 50 48 46 45 45 44 42 44 43 42 46 47 47 40 31 32 30 23 24 26 30 36 39 43 45 45 45 44 43 45 46 45 44 43 40 39 39 38 38 38 38 37 37 37 37 39 42 45 48 51 53 54 55 55 56 57 57 57 57 57 57 57 56 56 55 56 58 58 59 59 59 59 59 58 57 56 56 56
42 43 51 53 51 52 52 53 53 50 48 48 50 49 45 48 48 43 46 49 47 43 37 35 33 25 24 28 31 34 36 39 42 43 44 46 47 46 44 44 44 44 43 41 40 39 38 39 40 40 39 39 39 39 40 42 43 46 49 50 52 53 55 56 57 57 57 57 57 56 56 56 56 57 59 60 61 62 61 61 60 58 56 56 56 57
44 48 54 55 56 57 55 55 56 54 51 51 54 54 50 52 52 47 47 48 46 46 44 41 33 24 26 30 29 33 33 34 39 41 43 48 51 50 47 46 46 44 44 44 43 42 41 41 41 41 42 41 41 40 40 41 41 43 45 46 49 51 53 54 54 54 54 55 56 56 57 57 58 59 61 62 63 63 62 61 59 57 57 57 57 58
46 52 57 57 57 59 58 57 60 61 55 52 55 57 55 54 53 51 51 50 47 46 46 46 36 23 27 32 30 33 35 34 39 41 42 48 51 53 52 50 49 47 46 46 45 46 45 45 44 43 43 42 41 42 42 42 43 43 44 45 46 48 50 51 52 53 54 55 56 57 59 59 61 62 63 64 63 63 62 61 60 58 58 58 59 60
48 54 58 57 57 58 59 58 63 67 60 53 56 60 59 58 56 55 54 52 49 46 45 47 41 27 24 29 32 35 37 36 38 40 42 47 50 51 52 52 54 53 51 50 49 49 48 48 48 46 45 43 42 42 43 45 45 46 47 48 49 50 51 52 53 55 56 57 58 59 60 61 63 63 64 64 64 64 63 63 62 61 60 60 61 62
53 57 58 59 58 57 58 59 64 69 63 56 59 62 62 62 61 59 58 55 51 49 47 46 49 39 27 29 36 37 37 37 38 40 42 45 47 48 49 52 55 55 54 54 53 53 52 50 50 48 46 45 45 46 46 47 47 48 49 50 51 53 54 56 57 58 59 59 60 61 61 62 63 64 64 65 65 65 65 65 64 63 62 61 62 64
59 59 58 60 60 58 59 61 64 67 65 60 62 64 64 64 63 62 61 59 56 52 48 46 53 50 29 28 38 37 36 37 36 39 42 43 45 45 48 51 55 56 55 55 55 55 56 55 53 52 50 49 49 49 50 50 51 51 52 52 53 54 55 56 57 59 60 60 61 62 62 62 64 65 67 67 68 68 68 68 67 65 64 63 63 64
61 60 58 58 59 60 61 63 64 66 66 64 65 65 65 66 65 65 63 64 63 55 48 47 55 55 33 25 35 38 37 37 35 37 41 43 44 44 47 50 52 55 54 54 55 56 57 58 58 58 57 56 54 53 53 54 55 55 56 56 56 56 56 57 58 60 61 61 62 63 64 65 67 68 70 70 71 71 71 70 69 67 66 65 64 64
63 61 58 58 60 61 62 64 64 65 66 66 67 66 67 67 66 67 64 66 69 60 53 53 55 56 41 26 32 38 40 41 39 38 38 40 44 45 49 52 54 56 55 54 56 59 59 58 59 61 61 61 60 58 58 58 59 59 60 60 59 59 58 59 60 61 62 63 64 66 67 69 70 71 72 72 73 73 73 72 71 70 70 69 67 66
65 63 62 64 66 66 67 67 65 66 68 69 69 68 69 69 67 68 65 66 68 62 60 63 60 57 45 33 37 41 42 43 43 42 40 39 44 46 48 51 56 60 60 58 56 58 61 59 58 60 61 62 62 61 62 62 62 62 62 62 61 61 62 62 63 63 64 65 66 68 69 70 72 73 74 74 74 74 74 74 74 74 74 73 72 71
67 65 67 69 70 73 75 74 70 69 70 71 70 70 71 70 69 69 67 67 67 63 64 69 69 60 44 39 44 46 46 47 45 46 46 45 46 47 46 47 54 62 65 65 61 58 62 62 59 59 59 59 59 61 63 63 64 64 64 65 65 65 66 66 67 67 68 69 69 71 71 72 73 74 75 76 76 77 78 78 78 78 78 78 77 76
73 71 72 73 73 75 77 79 78 76 76 76 74 76 76 74 73 74 73 73 70 66 67 72 72 59 44 42 49 50 52 51 49 50 51 52 52 51 50 49 51 59 67 72 70 65 65 66 63 61 59 58 58 61 64 64 64 65 66 67 67 68 69 69 71 72 72 73 74 75 74 74 75 76 77 78 79 80 81 81 81 82 82 82 82 81
81 76 74 77 79 79 80 82 83 83 83 82 83 85 85 83 85 87 85 80 75 72 71 70 68 58 49 49 51 52 55 55 54 55 55 57 57 57 57 56 55 57 65 75 77 74 72 71 69 67 65 63 62 63 66 67 67 67 69 70 70 70 70 71 73 74 75 76 77 77 76 77 78 79 80 81 82 83 83 83 83 84 85 86 86 85
87 82 76 79 82 82 84 86 88 89 88 85 86 89 89 89 93 96 96 91 89 87 79 73 70 63 57 54 51 53 56 57 59 60 60 61 61 61 62 62 61 60 65 75 81 82 82 79 77 76 73 71 71 72 73 74 75 75 76 76 76 76 76 75 76 76 77 77 78 78 78 79 80 81 81 82 82 83 83 83 84 85 86 87 88 88
93 88 83 84 86 85 86 89 91 92 92 91 92 91 92 94 97 99 101 100 101 101 92 84 77 70 65 56 51 55 58 60 63 64 65 66 66 67 67 67 67 66 67 75 82 88 92 91 88 86 83 80 81 82 83 83 83 83 83 82 82 82 81 82 81 81 80 80 79 79 79 79 79 80 80 80 81 82 83 84 85 86 87 88 89 90
98 96 90 88 89 90 91 92 93 94 95 97 97 95 96 101 102 104 107 106 107 107 103 98 89 83 78 63 54 60 65 66 68 66 67 70 71 73 74 73 74 72 72 78 85 90 96 100 99 97 95 90 89 90 91 90 89 89 89 88 86 85 85 86 85 85 84 83 83 82 82 82 81 80 79 79 80 82 84 85 87 88 89 89 90 90
100 101 97 91 92 95 95 96 98 98 99 100 99 99 101 104 106 107 110 111 113 115 114 111 106 101 94 78 71 75 74 71 72 72 73 76 77 79 81 81 80 78 80 87 94 96 100 103 103 102 102 99 96 96 97 98 97 96 96 94 92 89 88 88 88 87 87 87 87 87 86 85 84 82 81 81 81 81 83 85 87 89 90 91 91 91
102 105 103 98 97 98 100 100 101 100 101 104 105 105 106 107 108 110 112 114 116 118 119 117 116 113 105 97 96 96 90 83 81 80 83 86 87 87 89 91 91 90 92 98 104 104 103 105 105 105 106 107 106 104 104 105 106 104 103 100 97 95 93 91 90 90 90 90 90 90 90 90 89 88 86 85 85 85 86 87 89 90 91 92 93 94
105 108 109 106 103 102 102 101 101 101 104 107 109 111 111 112 114 116 119 119 118 119 122 123 125 122 113 105 104 105 105 104 101 96 93 94 96 99 101 104 106 107 108 110 113 113 111 111 112 113 113 116 116 113 111 112 112 110 108 105 102 100 98 96 94 93 93 93 93 93 93 94 94 94 92 91 90 90 91 92 93 94 95 95 96 97
107 110 111 110 109 108 106 106 106 107 108 110 112 114 115 116 119 122 124 125 125 126 130 133 134 132 122 110 105 106 110 113 115 113 109 106 109 114 117 120 119 117 117 117 119 120 119 117 117 118 120 123 123 120 117 118 118 116 113 111 108 105 102 100 99 98 97 96 96 95 96 97 98 98 97 96 95 95 95 96 97 98 98 98 99 100
110 112 114 115 115 115 114 114 114 114 115 117 118 119 120 121 123 126 128 130 131 133 136 137 139 139 131 119 113 114 116 116 118 120 120 120 121 124 126 128 126 122 120 119 119 120 121 121 120 121 123 126 126 125 122 120 119 118 117 115 113 109 106 104 102 101 100 99 98 99 100 101 101 102 102 102 101 101 101 101 101 100 101 102 103 104
115 117 118 119 121 123 124 123 123 123 124 126 127 128 128 130 131 133 135 136 137 139 140 141 144 143 137 127 122 121 120 120 120 120 122 123 124 126 128 128 125 122 119 117 115 115 118 120 121 122 123 124 124 123 121 119 119 117 117 116 114 111 109 107 105 103 101 100 100 101 102 103 105 106 106 106 106 106 106 105 104 104 104 106 107 108
121 122 122 125 128 129 131 132 132 132 133 135 137 138 139 140 141 143 144 145 147 147 146 147 148 145 139 132 129 128 126 123 121 120 121 122 122 123 124 123 120 118 115 114 113 114 116 118 119 120 119 118 117 117 117 116 116 115 114 114 112 110 108 107 105 103 102 101 102 102 103 104 106 108 109 110 110 110 110 109 108 108 109 110 111 111
127 127 128 130 131 133 135 137 137 138 141 144 146 147 148 148 149 150 151 153 154 152 151 152 151 147 142 138 135 132 129 127 123 119 116 115 114 113 111 111 111 111 111 111 111 111 112 113 114 115 115 113 112 113 112 112 112 112 111 110 109 108 107 106 105 103 103 103 103 103 103 105 107 109 111 112 113 113 113 112 112 112 114 114 114 115
132 133 133 133 134 137 141 143 144 146 149 152 153 154 153 153 152 152 154 155 155 154 154 154 151 148 145 142 136 130 126 125 123 119 116 113 109 106 102 100 101 101 102 103 103 103 104 105 106 107 109 111 111 110 110 109 108 108 107 106 106 106 105 105 105 105 104 104 103 103 103 105 107 109 111 112 113 114 114 114 114 115 116 117 117 118
137 138 140 141 144 148 150 150 151 153 156 158 158 157 156 154 153 154 155 155 155 155 155 151 148 146 142 137 131 126 120 119 118 116 114 113 109 104 97 93 93 94 96 100 102 100 99 101 102 102 103 105 107 109 109 107 105 104 105 104 103 102 101 101 102 103 103 103 103 102 103 104 106 107 108 110 112 114 115 117 117 118 119 120 120 120
145 147 150 153 156 158 158 157 156 157 157 159 158 157 155 154 153 154 154 153 153 153 151 146 142 140 135 130 126 121 115 113 113 111 112 112 109 100 91 87 88 91 96 103 106 105 101 99 100 102 101 101 103 104 106 106 103 102 103 102 101 100 98 98 98 98 98 99 99 99 101 103 104 105 106 106 107 109 111 113 115 117 118 119 120 120
154 156 159 161 162 164 164 161 159 158 158 158 158 156 155 153 152 151 148 146 146 145 143 138 135 132 128 124 121 116 112 111 111 110 112 115 115 110 102 98 97 99 101 103 106 107 107 105 102 101 101 101 102 102 102 102 102 101 102 101 99 98 98 98 98 97 97 97 96 98 100 102 103 104 105 106 107 107 108 109 110 111 113 115 116 116
161 163 165 167 168 168 166 161 160 159 159 158 157 154 152 150 145 141 137 136 136 135 132 130 129 127 122 119 117 114 111 111 111 109 110 113 116 116 112 108 109 110 109 109 107 107 108 108 106 104 103 103 103 104 103 102 101 101 101 100 99 98 99 99 98 99 99 100 100 102 103 104 106 107 108 110 111 112 112 111 111 111 112 112 113 114
168 168 169 169 168 166 163 159 158 158 158 158 155 148 143 139 134 131 129 127 127 127 126 125 126 124 120 118 118 116 112 111 111 110 110 110 111 113 111 109 110 112 113 112 111 110 110 110 110 109 109 108 106 106 107 107 106 105 103 100 98 98 98 98 99 101 103 104 106 107 108 109 110 112 115 116 118 118 118 117 115 113 111 112 113 113
171 170 168 166 164 161 158 156 154 155 156 153 145 137 132 130 128 126 124 122 122 123 124 124 123 122 120 119 118 115 112 111 111 112 112 110 108 107 107 107 107 109 110 110 111 111 112 113 113 114 113 113 111 109 109 110 111 110 108 105 102 101 101 102 103 105 106 108 110 112 113 116 118 119 121 122 123 123 123 121 118 115 112 111 111 111
168 165 161 158 157 155 152 149 148 149 147 139 131 127 127 126 124 123 121 120 120 121 122 122 123 121 119 117 116 114 112 110 110 112 114 113 110 107 105 105 105 106 107 109 109 109 110 111 113 114 115 116 116 115 114 115 115 114 112 110 109 108 108 109 110 111 112 114 115 117 119 122 123 123 123 122 122 122 122 121 120 118 115 114 113 112
159 156 154 152 151 149 145 142 142 140 134 128 126 126 124 122 121 121 120 119 120 120 119 120 121 120 118 115 114 113 111 109 110 112 113 112 111 108 104 102 102 103 103 105 106 108 109 110 111 113 115 117 119 119 119 119 118 116 114 112 111 111 112 113 113 113 114 114 115 117 119 121 121 120 119 118 117 117 118 118 118 118 117 117 116 116
149 149 148 147 147 145 141 139 138 133 128 126 127 126 123 121 120 119 118 117 117 117 117 117 118 117 116 114 112 111 109 109 110 111 111 110 109 107 104 102 101 100 100 100 101 103 106 108 109 110 112 115 117 118 118 118 117 115 113 111 110 110 109 109 108 108 108 109 110 113 115 116 116 116 115 114 114 114 114 115 115 116 116 117 116 116
143 144 144 143 142 141 140 138 135 132 128 126 125 123 122 122 120 118 117 116 114 114 114 114 114 113 113 112 111 110 108 107 108 109 109 109 108 106 104 101 100 98 97 96 96 97 99 102 104 106 108 110 113 114 114 115 115 113 111 110 109 108 106 104 103 102 103 104 106 108 110 112 112 112 112 112 111 111 112 112 112 113 114 114 114 114
138 140 140 140 140 138 138 137 134 132 129 125 122 122 122 121 119 118 119 118 115 113 113 113 112 111 111 110 110 109 108 106 106 107 109 109 108 107 104 102 100 99 97 96 94 94 95 97 100 102 104 105 108 110 111 111 111 111 110 109 109 108 107 104 102 101 101 102 104 106 107 107 108 108 108 108 109 109 109 109 109 110 111 111 111 111
135 136 137 138 137 135 135 135 133 132 130 127 124 122 121 121 120 120 121 121 118 116 116 116 115 112 110 109 108 108 108 107 106 105 107 109 109 107 105 104 103 101 99 98 97 96 96 96 97 99 100 102 103 106 108 108 108 108 107 107 108 108 107 106 103 101 101 102 104 105 105 105 105 106 106 106 107 107 107 107 107 107 108 108 107 108
132 133 135 136 135 134 134 134 133 132 131 128 125 122 120 121 121 122 123 123 120 120 121 121 119 117 113 110 108 106 106 106 105 104 105 106 106 105 105 105 104 103 101 100 99 98 97 97 97 98 99 100 101 103 105 106 106 106 106 106 106 107 106 105 103 103 102 103 104 103 103 103 103 104 105 105 105 106 106 106 106 105 105 105 105 106
128 130 132 133 133 132 133 133 133 133 131 129 126 123 120 120 121 124 124 122 120 121 122 122 122 120 118 115 111 107 105 104 103 104 104 104 103 103 104 104 103 103 102 101 101 100 98 97 98 98 99 100 101 102 103 104 105 105 105 106 106 106 106 105 104 104 104 104 104 103 103 102 103 103 104 104 105 106 106 105 104 103 103 103 104 104
124 126 127 128 129 130 131 132 132 131 129 127 126 124 122 122 123 125 123 120 118 118 118 119 120 120 120 119 117 114 110 106 105 105 105 104 102 102 102 103 103 102 102 102 100 100 99 98 99 99 99 100 101 102 103 104 104 104 105 106 106 106 105 105 106 106 105 105 105 104 103 103 103 103 103 104 105 106 105 103 102 101 102 103 103 104
120 121 121 122 124 126 127 127 127 126 123 123 125 124 123 124 125 124 122 120 118 115 114 115 116 117 117 117 117 116 113 108 106 106 107 106 105 103 102 102 103 103 102 101 100 99 99 98 98 99 99 100 101 103 103 104 104 104 105 105 106 106 105 105 106 106 105 105 104 104 104 103 103 104 104 104 105 105 104 102 100 101 102 102 103 103
116 117 117 117 119 121 122 121 120 120 120 120 122 123 123 124 125 125 123 121 118 116 114 114 115 115 115 114 114 114 113 111 107 105 104 105 105 104 103 102 102 101 101 100 100 99 98 96 96 96 98 100 101 102 102 103 103 104 105 106 106 107 106 106 106 106 105 104 104 103 103 103 104 105 105 105 104 103 102 100 99 100 101 101 102 104
114 114 116 116 117 118 118 115 114 116 119 119 119 119 121 122 123 124 123 120 118 116 115 115 114 114 115 114 113 112 112 112 111 107 104 103 102 102 103 103 102 102 100 98 98 100 100 98 95 95 97 99 101 102 102 103 103 103 104 105 106 107 107 107 106 106 105 105 104 103 102 102 103 104 106 106 105 102 100 99 99 100 100 101 102 103
113 113 116 117 116 115 114 112 111 114 116 115 114 116 118 119 119 119 118 117 115 114 114 114 113 113 113 114 113 111 110 110 110 109 107 105 103 101 101 102 103 103 102 99 98 99 101 101 98 97 98 99 101 102 102 102 102 101 102 103 104 105 105 105 104 104 104 104 104 103 103 103 103 104 104 105 104 102 99 99 99 100 101 102 103 103
108 111 115 115 113 113 111 108 108 112 112 110 109 111 113 115 115 114 113 113 112 111 111 110 111 111 111 111 111 109 108 106 106 106 105 105 104 102 101 102 102 103 104 102 100 100 102 102 101 100 99 100 101 102 102 101 100 100 100 101 102 102 102 102 102 102 101 102 102 102 102 102 103 104 104 104 103 101 98 97 98 98 99 102 103 103
103 107 110 111 111 111 108 105 106 111 111 108 107 107 108 110 111 111 110 110 109 109 108 108 108 108 108 107 107 107 105 104 104 104 103 102 103 102 102 102 102 103 104 103 102 102 102 103 103 102 101 101 100 101 101 102 101 100 100 100 100 100 100 100 101 101 101 101 101 101 101 102 103 104 104 104 103 100 98 96 96 96 97 100 102 102
102 104 105 108 110 109 105 104 107 110 108 106 106 106 106 106 106 107 107 106 105 105 105 105 105 104 104 103 103 103 102 101 101 102 101 100 100 100 100 100 101 102 102 102 102 101 101 102 103 102 101 100 99 99 99 100 101 101 101 101 101 100 99 100 101 101 101 101 100 100 100 100 101 103 105 105 104 101 99 97 95 95 95 96 99 101
102 103 102 105 107 104 102 103 107 108 105 103 103 105 106 105 104 103 102 102 101 101 101 101 100 100 100 99 99 99 99 98 98 98 98 98 97 98 98 98 99 99 100 100 100 99 99 99 100 101 100 100 100 100 100 101 102 102 102 103 102 101 100 100 101 101 101 101 101 100 100 100 101 103 105 106 105 102 100 98 97 95 94 94 96 98
99 100 100 101 101 100 99 101 103 104 103 100 100 102 104 104 104 102 100 99 98 97 96 95 95 95 95 95 96 96 95 94 93 94 95 94 94 95 95 96 96 96 97 98 98 98 98 97 97 98 99 99 100 101 102 102 102 102 103 104 104 102 101 100 101 101 101 101 101 101 101 101 101 103 105 106 106 104 102 101 99 97 96 96 96 97
Wind_Direction
290 292 294 289 286 289 295 296 294 292 292 291 290 288 285 281 279 277 276 277 277 278 282 282 282 286 284 281 282 286 288 288 287 288 288 286 286 284 282 281 279 277 275 273 270 267 267 268 268 267 264 262 259 258 258 259 260 260 261 262 263 265 266 266 266 266 267 267 268 269 269 269 269 269 269 270 271 271 271 272 273 274 275 275 275 276
288 293 292 286 286 291 294 292 291 292 294 295 292 289 287 284 281 279 279 278 278 279 277 274 274 276 277 277 280 282 284 286 288 287 286 285 285 284 283 283 282 280 278 276 274 271 269 270 271 270 269 267 264 261 258 258 258 259 260 261 261 263 264 265 266 266 267 267 268 268 269 269 269 268 268 270 270 270 271 272 274 274 275 275 276 276
290 295 288 284 289 292 291 290 291 293 295 293 290 287 287 287 284 283 282 280 280 280 276 271 271 271 272 274 280 284 284 286 288 288 288 286 283 281 282 283 283 282 281 279 277 274 272 273 273 272 271 270 268 266 263 260 259 259 259 260 261 262 263 264 266 266 266 267 267 268 269 269 268 267 268 269 269 270 271 273 274 275 276 276 276 276
292 291 284 285 289 289 289 291 292 293 293 292 289 288 288 286 284 283 282 282 283 284 280 275 275 275 272 272 279 285 284 284 287 288 288 287 283 280 280 280 281 282 282 280 278 276 275 275 275 273 272 270 270 268 267 265 263 262 262 262 263 263 264 265 265 265 266 266 267 267 268 267 267 266 266 267 269 271 272 273 274 276 276 276 276 276
291 287 283 283 285 286 289 290 290 290 289 290 290 290 288 285 284 284 282 282 284 286 283 278 277 276 271 272 275 278 279 281 285 289 289 286 283 281 280 279 278 279 280 281 280 279 279 278 277 276 274 272 271 270 269 268 267 266 265 265 265 264 265 265 266 266 266 266 267 267 267 266 266 266 267 268 270 272 273 274 275 277 277 277 276 276
291 287 283 283 285 287 288 288 288 286 285 288 290 290 287 285 287 287 284 284 284 285 284 281 279 269 262 266 266 269 276 279 283 287 286 283 281 281 281 281 280 278 276 277 278 281 282 282 280 279 277 275 273 272 270 269 268 268 268 267 266 265 265 265 266 266 266 266 267 267 267 267 268 269 270 271 272 273 274 276 277 278 278 277 276 276
289 285 284 286 286 287 288 289 287 284 284 287 287 285 285 287 289 289 288 286 285 283 283 283 281 265 247 255 259 262 271 279 284 283 279 279 281 283 284 284 283 281 279 278 278 279 280 280 280 279 279 278 276 274 273 272 270 269 269 268 267 266 266 265 266 266 266 267 267 268 268 269 270 271 271 272 273 274 276 277 278 279 279 278 277 276
286 283 285 287 286 287 288 287 285 285 286 286 283 281 283 285 287 288 289 288 286 283 281 283 281 269 245 247 258 261 268 277 282 280 278 280 282 284 286 285 284 284 285 286 285 284 282 279 277 277 277 277 276 276 275 275 274 273 272 270 269 269 268 267 267 267 267 268 268 269 270 270 271 272 272 273 274 276 277 279 279 280 279 278 278 278
283 282 284 284 285 287 286 285 285 286 287 286 283 282 282 282 284 287 287 288 288 286 284 283 279 272 253 241 254 260 265 272 275 278 281 282 282 283 284 284 285 287 288 289 288 287 286 285 282 280 279 278 277 277 277 277 277 276 276 275 274 274 272 271 270 269 269 269 269 270 270 270 272 273 274 275 276 277 279 280 280 280 280 280 279 279
281 281 282 283 284 285 286 286 287 287 288 287 285 284 283 282 283 284 285 286 287 288 289 283 277 276 264 241 250 254 257 263 266 271 278 283 286 287 286 284 284 285 285 286 286 286 286 287 287 285 284 283 281 281 280 279 279 278 278 278 278 278 276 275 273 272 272 272 271 271 271 272 274 275 276 276 277 279 280 280 280 280 280 279 279 279
282 283 284 285 285 285 286 285 286 287 288 287 286 285 284 283 282 282 283 284 285 287 287 281 279 279 274 257 254 255 255 257 259 262 269 279 286 288 289 289 287 285 284 283 283 285 285 285 286 286 286 286 286 285 283 282 281 281 280 280 280 279 278 277 275 275 274 273 272 272 273 274 275 276 276 277 278 280 281 281 281 280 280 279 279 277
284 287 287 288 288 289 287 285 285 286 286 286 286 286 285 284 283 282 283 282 283 285 284 281 279 279 280 275 264 260 258 255 255 256 258 264 274 280 285 290 291 288 287 286 284 283 283 283 284 285 286 286 287 286 285 283 283 283 282 282 282 282 281 280 279 277 275 274 273 273 274 275 276 276 276 277 278 280 281 281 280 280 280 280 279 277
287 288 288 289 289 290 289 289 288 286 285 284 285 286 285 283 282 282 282 280 279 280 280 280 279 278 281 278 269 265 262 259 257 256 253 253 260 269 274 280 287 290 289 289 287 285 284 283 283 283 284 285 285 284 283 282 282 283 282 283 283 283 282 281 280 279 277 276 275 275 276 276 276 276 277 278 279 280 281 281 281 281 280 280 279 278
289 289 289 288 287 287 288 289 289 289 288 288 289 288 286 287 287 284 281 278 277 278 277 278 278 278 277 271 266 265 264 263 261 259 258 254 253 258 263 266 274 283 288 288 288 287 285 285 284 283 281 281 282 281 281 280 281 281 282 282 282 282 282 280 279 277 277 276 276 277 278 278 277 278 278 279 280 281 281 281 281 281 280 280 279 279
287 289 290 288 287 288 288 288 289 289 290 291 293 292 294 297 293 287 285 284 284 282 279 280 281 281 278 270 264 262 262 263 262 260 259 258 255 254 257 260 262 270 280 285 286 286 284 284 283 283 282 281 281 281 280 280 280 280 280 280 281 281 280 279 278 277 276 276 276 277 278 277 277 277 278 279 280 280 280 280 281 281 280 280 280 279
285 288 289 288 288 289 288 288 288 288 289 291 291 293 296 295 290 288 291 293 292 289 288 289 288 285 282 275 268 264 260 260 261 260 258 258 258 256 257 261 262 262 270 278 283 285 283 283 282 283 283 282 281 281 281 281 280 280 280 279 279 279 279 278 278 277 276 276 276 277 276 276 276 276 277 278 279 279 280 280 280 280 280 280 280 280
283 286 287 287 288 287 285 286 287 288 290 291 292 293 292 289 287 289 292 293 293 292 293 293 290 288 284 277 273 272 266 260 260 260 260 259 259 259 259 261 263 263 265 271 278 283 284 284 284 283 283 281 281 281 281 280 280 279 279 278 278 278 277 277 276 276 277 277 277 276 276 276 275 276 276 277 277 279 279 280 280 280 280 280 279 279
284 285 285 286 286 287 287 287 287 288 289 290 289 288 287 288 290 292 293 292 292 292 293 294 293 291 288 280 276 278 275 270 269 267 265 262 261 262 261 260 261 263 265 269 275 280 284 285 285 284 283 281 280 279 279 280 279 279 277 276 276 276 275 275 274 275 275 276 276 276 276 276 276 275 275 276 276 278 279 279 280 280 280 279 279 280
284 283 284 285 286 288 288 287 288 290 289 287 285 285 286 289 291 292 292 292 292 293 294 295 295 294 292 290 286 284 281 277 275 274 272 270 268 268 268 267 265 263 267 272 276 279 282 285 284 284 283 282 280 278 278 279 279 279 278 276 274 274 274 273 273 273 273 273 274 274 275 275 275 274 274 274 275 276 277 278 278 279 279 279 280 280
283 283 284 287 287 287 287 288 289 289 287 286 287 287 288 289 289 289 289 289 290 291 292 292 292 292 294 294 293 292 290 285 279 276 275 275 274 273 275 276 273 271 272 276 278 278 279 281 281 282 282 282 282 281 280 280 280 280 279 276 274 273 272 272 272 271 271 271 271 272 272 273 273 273 272 273 273 274 275 276 276 277 277 278 279 279
282 283 285 286 286 286 286 286 285 284 284 285 287 288 288 289 289 289 288 289 288 288 289 289 289 290 292 292 293 294 293 291 287 284 280 279 280 280 281 281 280 279 279 280 280 279 278 280 281 282 282 281 282 282 281 280 280 279 279 277 275 272 272 272 271 270 270 270 270 270 271 271 271 271 271 271 272 272 273 274 274 274 275 276 277 278
281 282 283 284 285 286 285 284 283 283 283 284 285 286 287 287 287 287 287 288 288 287 288 289 289 290 290 290 290 290 289 289 288 288 285 284 284 284 284 283 282 281 280 280 280 280 279 279 279 280 280 279 280 280 279 278 278 277 277 277 275 273 272 272 271 270 269 268 269 269 269 270 271 271 271 270 271 271 272 272 272 273 274 275 275 276
280 279 280 281 283 284 284 284 284 284 284 284 285 285 285 284 283 284 284 285 286 286 287 287 288 288 289 290 289 287 286 285 285 285 285 284 284 283 283 282 281 280 278 278 278 277 277 277 277 277 277 276 276 276 276 275 275 275 275 275 274 273 272 272 272 271 269 268 268 268 268 269 270 270 270 270 271 271 271 271 271 272 273 273 274 275
278 277 278 279 282 283 284 284 285 286 286 286 285 284 284 283 283 283 284 284 284 284 284 285 286 287 288 288 287 285 283 283 282 282 282 281 281 280 279 279 278 277 276 275 275 275 275 275 275 275 275 274 273 273 273 272 272 272 272 272 273 273 273 273 273 271 269 268 267 267 267 268 268 269 270 270 270 270 270 270 271 271 272 272 273 273
277 277 277 279 281 283 285 286 287 288 287 286 286 286 286 286 286 286 286 286 285 285 286 286 286 287 288 287 286 285 284 282 281 280 279 279 278 278 277 276 276 275 274 274 273 273 273 273 273 272 272 271 271 271 271 271 271 270 270 270 271 272 273 273 273 271 270 269 268 267 266 266 267 268 269 269 270 270 270 270 270 271 271 271 272 272
276 276 277 279 280 282 285 287 287 287 287 286 286 287 287 287 288 288 288 288 288 289 289 288 288 289 289 288 287 287 286 285 284 282 281 279 277 275 273 272 272 271 271 271 270 269 269 269 269 269 269 268 268 268 268 268 269 269 269 269 269 270 271 271 271 270 270 269 268 267 266 266 266 266 267 268 269 269 270 270 270 270 270 270 271 271
277 277 278 278 279 281 283 285 286 285 285 285 286 286 286 287 287 288 288 288 289 289 289 288 289 290 290 289 289 289 289 289 289 289 288 285 283 280 278 275 273 271 270 269 267 267 269 269 267 266 265 265 265 266 266 267 267 268 268 268 268 268 268 269 269 269 269 269 268 267 267 266 265 265 266 266 267 268 269 269 270 270 269 270 270 270
276 277 279 280 280 281 282 283 283 284 284 284 285 285 285 286 287 287 287 288 288 288 288 288 289 289 289 289 289 289 289 289 289 289 288 287 287 286 284 281 277 276 275 274 272 271 272 272 270 267 265 264 264 265 266 266 267 268 269 269 268 268 267 267 267 268 268 268 268 268 267 267 266 266 266 267 267 268 268 269 269 270 270 270 270 271
276 278 279 281 281 282 282 282 282 282 282 283 283 284 284 285 285 286 286 287 288 288 288 288 288 287 287 287 287 287 287 286 284 283 282 283 283 282 279 275 274 275 276 277 277 277 275 273 272 271 269 268 267 267 267 267 268 268 268 269 270 271 271 270 270 270 270 269 269 269 268 267 267 268 269 269 269 269 269 269 269 270 270 271 271 272
277 278 280 281 282 283 283 282 282 281 281 281 282 283 283 284 284 285 286 286 286 286 286 286 285 285 285 285 284 284 283 280 278 276 276 277 278 277 274 271 270 271 273 274 276 278 278 277 276 275 275 274 272 271 269 268 269 269 269 270 271 273 274 275 275 275 275 275 274 274 273 272 272 272 272 273 273 273 272 271 271 271 271 271 272 272
277 279 281 282 282 283 282 282 282 281 281 282 282 282 282 283 284 284 284 284 283 283 284 284 283 283 283 283 282 281 279 276 274 273 272 271 272 272 271 270 269 269 270 271 272 272 274 275 275 276 276 276 275 275 274 272 271 271 271 271 272 273 274 274 275 276 276 277 277 277 277 276 276 277 277 277 277 277 277 276 275 275 275 275 274 274
278 280 281 282 282 281 281 281 281 282 282 282 281 282 283 284 284 283 283 282 282 282 282 282 281 281 281 280 279 277 277 276 275 273 272 270 269 270 271 270 269 269 269 269 269 268 268 269 270 271 272 272 272 272 273 274 273 273 272 272 272 272 272 273 274 275 276 276 276 276 277 277 278 279 279 280 280 281 280 280 280 279 279 278 277 277
279 280 281 281 281 281 280 281 281 281 281 281 282 284 284 284 283 282 282 281 281 281 280 280 279 279 279 278 277 278 278 277 276 275 274 273 271 271 271 270 269 268 268 267 267 266 266 266 267 269 270 271 271 270 270 270 270 271 272 273 273 273 273 273 274 274 274 274 274 274 275 276 277 278 279 280 280 281 282 282 282 282 281 280 280 279
280 281 281 280 280 280 280 281 281 280 280 282 283 284 283 282 282 281 281 281 280 280 279 279 279 279 278 278 279 279 278 277 277 276 275 274 273 271 270 269 268 267 267 267 267 266 266 265 265 266 267 269 270 271 271 270 270 270 270 271 272 272 273 273 273 273 272 272 273 273 274 275 276 276 277 277 278 279 280 280 281 282 282 282 282 282
281 281 281 281 281 281 281 281 280 280 281 283 283 282 281 281 281 280 280 280 279 279 279 279 279 279 279 278 278 277 277 277 275 274 274 274 273 272 271 270 269 268 267 267 267 268 268 267 266 265 265 266 268 269 270 270 270 270 270 270 271 271 271 271 271 271 271 272 272 272 273 273 274 274 275 276 276 277 277 278 279 280 281 282 282 282
280 281 281 281 281 281 282 281 281 282 283 283 282 282 282 281 280 279 279 278 278 278 277 277 276 277 277 276 276 276 275 275 274 274 274 274 274 274 273 272 271 270 268 268 267 267 267 268 268 267 266 267 268 269 269 270 270 271 271 271 271 270 269 269 269 270 270 270 270 270 271 271 272 273 274 275 275 275 276 276 277 278 279 280 280 281
279 280 280 281 281 281 281 282 282 282 282 282 282 282 282 281 281 280 280 278 277 276 275 275 274 275 275 275 275 275 274 274 274 275 275 275 275 275 274 274 273 272 271 270 269 268 268 267 267 267 267 267 268 268 269 270 271 271 272 272 272 271 270 270 270 270 270 270 270 269 270 270 271 272 273 274 275 275 275 276 276 277 277 278 279 279
279 279 280 280 280 281 281 281 281 281 281 281 281 281 281 281 281 281 280 279 278 276 275 275 274 274 273 274 274 274 274 274 274 274 275 275 275 275 275 275 274 274 273 272 270 269 268 267 267 267 267 267 267 268 269 269 270 271 271 272 272 272 272 272 271 271 270 270 270 270 270 271 271 272 273 274 274 274 274 275 275 276 276 277 278 279
278 278 279 279 279 280 280 280 280 281 281 280 280 280 280 280 280 280 280 279 278 278 278 277 276 275 274 274 273 274 273 273 272 272 273 273 274 274 274 274 273 273 272 271 270 269 268 267 266 266 266 266 267 267 268 269 269 270 270 271 271 271 271 271 271 271 271 271 270 270 271 271 272 272 273 273 273 273 274 274 274 275 275 277 278 279
277 278 278 278 279 279 279 279 280 280 279 279 279 279 279 279 279 279 278 278 278 279 279 279 279 278 277 276 274 273 272 272 271 271 271 271 272 272 272 272 272 272 271 270 269 268 267 267 266 266 266 266 266 266 267 268 268 269 269 269 269 270 270 270 271 271 270 270 270 270 270 271 271 271 272 272 273 273 273 273 274 275 276 277 277 278
275 276 276 277 277 278 278 278 279 279 279 280 280 280 279 279 278 277 276 276 277 277 278 279 279 279 279 278 277 275 273 272 272 271 271 270 270 271 271 271 270 270 270 269 269 268 267 266 266 265 265 265 265 265 266 266 266 267 267 267 268 268 269 269 269 269 269 269 269 269 269 270 270 270 271 271 272 272 272 273 274 275 275 275 276 276
273 273 274 275 275 276 276 277 277 278 279 280 281 281 280 279 277 276 276 276 275 275 275 276 276 277 277 278 278 277 276 275 275 274 273 272 271 271 271 271 271 270 269 269 268 268 268 267 266 266 265 265 265 265 265 265 265 265 265 266 266 267 267 267 268 268 268 268 268 269 269 269 269 269 270 270 270 270 271 272 273 273 273 274 274 274
273 273 273 273 273 274 274 275 276 277 278 279 279 279 278 278 277 276 276 276 275 275 274 274 275 275 275 275 276 277 276 275 274 274 274 274 273 272 271 271 271 271 270 270 269 268 268 267 267 267 267 266 266 265 265 265 266 266 266 266 266 266 266 266 266 266 266 267 267 268 268 269 269 269 269 268 269 269 270 270 271 271 272 272 273 274
274 274 274 274 273 273 273 274 275 276 276 276 275 276 276 276 276 276 276 276 276 276 275 275 274 274 274 274 274 275 276 276 274 273 272 273 273 273 273 272 272 271 271 271 271 270 269 267 267 267 268 268 267 266 266 266 266 266 266 266 266 266 266 266 266 266 267 267 267 267 268 268 269 269 269 268 268 268 269 270 270 271 271 272 272 273
276 276 276 275 274 274 274 274 275 275 274 274 274 274 274 274 274 274 275 275 276 276 276 275 274 274 274 274 273 274 274 275 275 275 274 273 273 273 273 273 273 272 271 271 271 271 271 269 268 267 267 267 266 266 266 266 265 265 266 266 266 266 267 267 268 268 269 269 268 268 268 268 268 268 269 269 269 269 269 270 271 271 271 272 272 273
277 278 277 276 275 275 275 275 274 274 273 273 273 273 273 273 273 273 274 274 275 275 275 275 275 275 274 274 274 273 273 273 274 274 274 274 273 272 272 272 272 271 271 270 269 269 269 268 267 266 265 265 265 265 264 264 264 265 265 265 265 266 266 267 268 268 269 269 270 269 269 269 268 268 268 268 268 269 270 270 271 271 272 272 272 273
277 277 276 276 276 276 276 275 275 274 274 273 273 273 273 273 273 273 274 274 274 274 274 274 274 274 274 274 274 274 274 274 273 273 273 273 273 272 271 270 269 269 269 269 268 268 267 267 267 266 265 265 265 265 265 265 264 264 264 264 265 265 266 266 267 267 267 268 268 269 269 269 269 269 268 268 268 268 268 268 269 269 270 271 271 272
276 276 276 276 276 276 276 276 275 275 274 274 273 272 272 272 273 273 273 273 273 274 274 273 273 273 273 274 274 274 274 274 274 274 273 272 272 271 271 270 269 269 269 268 268 268 267 268 267 267 266 266 266 266 267 267 267 266 265 265 264 264 264 265 265 265 265 266 266 267 267 268 268 269 269 269 268 268 268 267 267 268 268 269 270 271
276 275 275 275 275 275 276 276 275 274 274 275 275 275 273 273 272 272 273 273 273 273 273 273 273 273 274 274 274 274 274 274 274 273 273 272 272 271 271 270 270 269 269 268 268 267 267 267 267 267 266 267 266 266 266 266 266 266 265 265 264 263 263 263 263 264 264 264 265 265 266 266 267 268 269 269 269 269 269 268 268 268 268 269 271 271
274 273 273 273 274 275 275 275 274 274 275 275 275 276 275 274 273 273 273 272 272 272 272 273 273 273 274 274 274 274 273 273 273 273 272 272 271 271 270 270 269 269 269 268 268 267 266 265 264 264 265 265 265 265 264 264 264 265 265 265 264 263 262 262 262 262 263 263 264 264 264 264 265 266 268 269 269 269 269 269 269 269 268 269 270 271
274 274 273 273 273 273 273 273 273 274 275 275 275 275 276 276 276 275 275 274 274 273 273 273 273 273 274 274 274 273 273 272 272 272 271 271 271 270 269 269 268 268 267 267 267 267 265 264 263 262 263 263 263 264 264 264 264 264 265 265 265 264 262 261 261 261 262 262 263 263 263 263 264 265 266 267 268 269 269 269 269 269 269 269 269 270
Height
10756 10757 10755 10748 10742 10742 10745 10747 10747 10747 10747 10748 10748 10748 10747 10746 10746 10742 10738 10737 10735 10743 10749 10745 10746 10747 10744 10741 10734 10729 10725 10722 10722 10722 10723 10721 10721 10721 10721 10723 10723 10724 10725 10724 10724 10723 10722 10723 10723 10724 10723 10722 10723 10722 10722 10721 10721 10721 10721 10720 10720 10719 10719 10719 10718 10718 10717 10716 10716 10716 10715 10714 10714 10713 10711 10710 10710 10710 10709 10709 10709 10709 10708 10706 10705 10704
10751 10754 10749 10739 10738 10739 10740 10739 10740 10742 10743 10743 10742 10742 10742 10740 10741 10739 10734 10733 10731 10739 10746 10741 10743 10745 10741 10739 10733 10727 10724 10719 10717 10717 10717 10718 10718 10716 10715 10716 10718 10718 10719 10719 10719 10718 10718 10718 10718 10719 10718 10717 10717 10717 10716 10716 10715 10715 10715 10714 10714 10714 10713 10712 10712 10712 10711 10710 10710 10709 10708 10707 10707 10706 10705 10704 10703 10703 10702 10703 10703 10702 10701 10700 10698 10697
10748 10750 10740 10732 10734 10735 10733 10732 10733 10736 10737 10737 10735 10735 10737 10733 10734 10736 10730 10728 10729 10734 10740 10738 10739 10742 10739 10736 10730 10723 10721 10717 10712 10711 10711 10713 10714 10713 10711 10711 10712 10712 10713 10714 10713 10713 10713 10713 10712 10713 10713 10713 10712 10711 10711 10711 10710 10710 10709 10709 10709 10708 10707 10706 10706 10705 10705 10704 10703 10702 10701 10701 10700 10699 10698 10697 10696 10695 10696 10696 10695 10694 10694 10693 10691 10690
10746 10743 10731 10727 10729 10728 10727 10726 10726 10730 10731 10730 10726 10728 10732 10727 10725 10732 10728 10724 10725 10729 10733 10734 10737 10740 10735 10731 10727 10718 10716 10714 10708 10707 10707 10706 10706 10707 10708 10708 10707 10707 10708 10708 10708 10708 10709 10708 10708 10708 10707 10707 10707 10707 10706 10706 10705 10704 10703 10703 10703 10702 10701 10700 10699 10699 10698 10697 10697 10696 10695 10694 10693 10692 10691 10690 10689 10689 10689 10688 10688 10688 10688 10687 10685 10684
10740 10734 10724 10723 10722 10720 10722 10721 10717 10720 10724 10723 10719 10720 10723 10719 10717 10724 10724 10722 10724 10724 10724 10725 10733 10739 10731 10726 10723 10713 10710 10711 10706 10704 10704 10700 10698 10698 10701 10703 10703 10704 10703 10702 10702 10703 10705 10704 10704 10703 10702 10702 10702 10702 10701 10701 10700 10699 10698 10698 10697 10696 10695 10694 10693 10693 10692 10691 10690 10689 10688 10687 10686 10685 10684 10683 10682 10682 10682 10681 10681 10682 10682 10681 10679 10677
10733 10723 10715 10717 10718 10715 10716 10716 10709 10707 10715 10719 10713 10710 10711 10711 10712 10715 10716 10718 10721 10721 10718 10717 10725 10733 10728 10722 10718 10708 10706 10707 10703 10702 10699 10694 10692 10692 10694 10695 10695 10697 10698 10698 10698 10698 10699 10699 10698 10698 10698 10698 10697 10696 10696 10695 10694 10694 10693 10692 10691 10691 10690 10688 10688 10687 10686 10685 10684 10683 10682 10681 10679 10678 10677 10676 10676 10675 10674 10674 10675 10675 10675 10674 10672 10671
10725 10712 10707 10711 10712 10710 10709 10710 10701 10692 10705 10716 10708 10699 10700 10703 10705 10706 10708 10710 10715 10717 10715 10713 10716 10724 10726 10719 10712 10706 10705 10705 10701 10696 10692 10688 10686 10687 10687 10686 10685 10687 10690 10692 10693 10693 10693 10693 10692 10692 10693 10693 10692 10691 10690 10689 10689 10689 10688 10687 10686 10685 10684 10683 10682 10681 10680 10679 10677 10676 10675 10674 10672 10671 10670 10670 10669 10668 10667 10667 10668 10668 10668 10667 10665 10663
10713 10706 10704 10703 10703 10705 10704 10701 10692 10684 10695 10707 10700 10693 10693 10694 10695 10698 10700 10702 10706 10709 10710 10710 10706 10711 10723 10718 10708 10707 10706 10704 10698 10689 10686 10684 10682 10682 10681 10679 10677 10678 10681 10682 10684 10684 10685 10686 10686 10686 10687 10687 10687 10685 10685 10683 10683 10683 10681 10681 10680 10679 10678 10677 10676 10675 10674 10673 10671 10670 10669 10667 10665 10664 10663 10662 10661 10661 10660 10660 10660 10660 10660 10659 10658 10655
10701 10700 10700 10696 10695 10697 10695 10690 10686 10681 10685 10692 10690 10688 10688 10687 10687 10689 10691 10693 10696 10700 10706 10706 10696 10696 10715 10717 10707 10708 10706 10700 10695 10686 10682 10679 10678 10678 10677 10674 10671 10671 10674 10674 10673 10674 10674 10675 10677 10679 10680 10680 10680 10679 10679 10678 10676 10676 10675 10674 10674 10673 10673 10672 10671 10669 10667 10667 10665 10663 10662 10660 10658 10656 10655 10654 10653 10652 10652 10651 10651 10651 10651 10650 10649 10647
10691 10692 10693 10691 10689 10687 10683 10681 10679 10675 10675 10678 10679 10680 10680 10679 10681 10681 10683 10684 10685 10693 10700 10697 10687 10685 10704 10714 10707 10705 10703 10696 10692 10686 10680 10675 10673 10673 10671 10669 10668 10666 10668 10668 10666 10665 10665 10666 10667 10668 10670 10671 10672 10672 10671 10670 10669 10668 10668 10667 10667 10667 10667 10666 10664 10663 10662 10661 10659 10657 10655 10653 10650 10649 10647 10645 10645 10644 10643 10642 10642 10642 10642 10641 10640 10639
10682 10684 10687 10685 10682 10679 10676 10672 10670 10668 10667 10666 10667 10670 10670 10671 10673 10672 10676 10676 10675 10687 10693 10685 10680 10679 10694 10709 10705 10699 10696 10690 10687 10683 10680 10675 10670 10668 10664 10661 10659 10658 10660 10661 10660 10658 10658 10660 10659 10659 10660 10661 10662 10663 10662 10662 10661 10660 10659 10659 10659 10658 10659 10659 10657 10657 10656 10654 10652 10650 10648 10645 10643 10640 10638 10637 10636 10635 10634 10633 10632 10632 10632 10632 10632 10631
10675 10677 10677 10675 10672 10670 10667 10664 10664 10662 10658 10656 10657 10659 10658 10660 10663 10663 10667 10666 10666 10679 10682 10675 10673 10675 10689 10700 10696 10692 10689 10684 10682 10679 10678 10674 10668 10665 10664 10658 10650 10646 10647 10650 10652 10652 10649 10652 10653 10652 10652 10653 10654 10654 10653 10652 10652 10651 10650 10649 10649 10649 10649 10649 10648 10648 10647 10645 10644 10642 10640 10637 10635 10632 10630 10628 10627 10626 10625 10623 10623 10622 10622 10622 10622 10622
10668 10669 10667 10665 10665 10660 10654 10654 10656 10654 10650 10648 10649 10648 10646 10648 10651 10652 10656 10654 10657 10669 10671 10665 10665 10672 10686 10692 10685 10683 10681 10677 10677 10674 10671 10669 10664 10661 10661 10659 10650 10640 10635 10635 10639 10643 10640 10641 10645 10645 10646 10647 10647 10645 10644 10644 10643 10642 10641 10640 10640 10639 10639 10639 10638 10637 10636 10635 10634 10632 10632 10629 10626 10623 10620 10619 10617 10616 10614 10613 10613 10612 10611 10611 10610 10611
10658 10661 10659 10655 10655 10653 10647 10645 10643 10642 10640 10639 10641 10638 10634 10639 10640 10637 10639 10640 10647 10658 10658 10654 10657 10668 10682 10682 10675 10674 10672 10670 10671 10667 10664 10661 10658 10656 10655 10656 10652 10641 10629 10622 10624 10630 10630 10629 10632 10635 10637 10639 10639 10637 10635 10635 10635 10634 10633 10632 10631 10630 10630 10629 10628 10626 10626 10625 10623 10622 10622 10620 10617 10614 10611 10609 10608 10606 10604 10603 10602 10601 10600 10599 10598 10599
10641 10651 10655 10644 10640 10643 10640 10635 10631 10630 10630 10631 10632 10625 10624 10630 10622 10613 10618 10628 10637 10643 10644 10645 10649 10661 10671 10669 10668 10667 10664 10664 10662 10658 10656 10653 10651 10650 10647 10647 10647 10642 10629 10615 10611 10615 10618 10619 10620 10622 10625 10627 10629 10628 10626 10626 10626 10626 10624 10623 10622 10621 10621 10619 10617 10616 10615 10614 10613 10613 10613 10611 10608 10605 10603 10601 10598 10597 10595 10593 10591 10589 10587 10586 10585 10586
10621 10635 10647 10636 10630 10634 10629 10624 10620 10616 10619 10624 10623 10618 10618 10616 10603 10594 10599 10611 10616 10618 10629 10639 10639 10648 10657 10658 10659 10659 10656 10656 10652 10649 10648 10645 10643 10642 10640 10638 10636 10636 10629 10614 10604 10601 10602 10607 10609 10610 10613 10616 10617 10617 10616 10615 10615 10615 10614 10613 10612 10610 10610 10609 10607 10605 10604 10604 10604 10603 10602 10601 10599 10597 10595 10593 10590 10587 10585 10583 10581 10578 10576 10574 10573 10572
10606 10616 10630 10626 10622 10624 10619 10615 10611 10605 10605 10609 10610 10610 10608 10600 10592 10588 10587 10592 10592 10590 10607 10624 10626 10633 10642 10647 10653 10650 10646 10645 10641 10640 10639 10637 10635 10632 10630 10629 10625 10624 10623 10613 10603 10594 10589 10591 10595 10597 10600 10604 10603 10602 10603 10602 10602 10603 10602 10601 10600 10598 10598 10597 10596 10595 10594 10594 10594 10592 10591 10590 10590 10588 10586 10584 10582 10578 10575 10573 10571 10568 10565 10563 10561 10560
10593 10594 10611 10616 10609 10609 10609 10605 10602 10600 10597 10594 10594 10596 10592 10584 10584 10582 10573 10573 10574 10570 10580 10601 10612 10617 10623 10634 10643 10639 10634 10633 10630 10631 10631 10627 10625 10623 10619 10617 10613 10613 10612 10606 10599 10592 10583 10577 10578 10580 10584 10589 10591 10588 10587 10587 10589 10590 10588 10587 10586 10586 10586 10584 10584 10584 10583 10583 10583 10581 10579 10579 10579 10579 10576 10574 10573 10570 10567 10564 10561 10558 10555 10552 10550 10549
10581 10572 10586 10603 10599 10595 10596 10593 10592 10593 10589 10581 10580 10582 10579 10574 10573 10570 10560 10555 10555 10551 10554 10570 10586 10597 10608 10621 10626 10621 10621 10623 10620 10620 10618 10613 10610 10608 10604 10603 10603 10603 10602 10594 10586 10584 10579 10569 10564 10563 10563 10570 10575 10575 10573 10572 10573 10575 10574 10574 10573 10572 10571 10571 10572 10573 10572 10573 10572 10570 10569 10568 10568 10567 10566 10564 10563 10562 10558 10554 10551 10548 10544 10541 10539 10539
10570 10557 10561 10582 10588 10582 10580 10581 10582 10580 10574 10567 10565 10566 10567 10567 10563 10557 10549 10544 10542 10537 10535 10542 10551 10570 10596 10609 10606 10604 10607 10607 10607 10605 10601 10596 10594 10592 10590 10589 10587 10586 10585 10580 10570 10568 10570 10563 10555 10552 10547 10547 10554 10560 10559 10557 10556 10556 10557 10560 10560 10558 10556 10557 10559 10560 10560 10560 10559 10559 10558 10557 10555 10555 10555 10554 10553 10552 10549 10545 10542 10538 10534 10532 10530 10528
10556 10547 10545 10557 10566 10567 10568 10570 10570 10568 10564 10558 10555 10555 10555 10555 10550 10541 10534 10533 10533 10526 10522 10520 10517 10536 10575 10596 10595 10595 10593 10588 10587 10588 10585 10582 10578 10576 10575 10571 10567 10565 10565 10566 10558 10550 10553 10553 10546 10542 10536 10528 10533 10543 10544 10539 10538 10537 10539 10542 10544 10544 10543 10543 10545 10545 10546 10546 10546 10547 10546 10545 10543 10542 10542 10542 10541 10540 10538 10535 10531 10527 10525 10524 10520 10516
10543 10537 10534 10537 10544 10550 10554 10555 10554 10555 10555 10551 10547 10547 10547 10545 10539 10528 10520 10523 10523 10514 10509 10506 10496 10504 10541 10575 10584 10583 10579 10575 10572 10569 10569 10569 10565 10559 10555 10550 10548 10548 10547 10547 10545 10537 10536 10539 10536 10532 10525 10515 10516 10526 10527 10522 10520 10520 10521 10523 10525 10528 10530 10530 10530 10530 10531 10533 10533 10534 10532 10530 10530 10529 10529 10528 10528 10527 10525 10522 10519 10516 10515 10514 10509 10505
10532 10524 10520 10523 10529 10533 10536 10539 10541 10541 10543 10541 10537 10538 10539 10534 10529 10520 10512 10513 10510 10499 10498 10498 10486 10485 10514 10550 10564 10559 10557 10560 10559 10555 10554 10552 10548 10543 10536 10530 10529 10531 10529 10527 10528 10525 10519 10519 10521 10519 10514 10505 10501 10505 10508 10506 10505 10504 10505 10504 10505 10511 10515 10515 10516 10516 10517 10519 10520 10518 10516 10516 10515 10514 10513 10513 10512 10511 10508 10507 10506 10505 10504 10500 10497 10493
10520 10510 10505 10508 10513 10518 10519 10521 10525 10528 10529 10524 10520 10523 10522 10518 10517 10511 10503 10501 10494 10486 10489 10486 10472 10476 10500 10525 10534 10533 10535 10540 10541 10540 10537 10533 10530 10525 10516 10512 10511 10512 10511 10510 10510 10509 10503 10499 10500 10500 10497 10490 10484 10484 10486 10487 10487 10488 10489 10489 10490 10495 10498 10498 10499 10501 10502 10504 10504 10502 10502 10501 10499 10497 10497 10496 10495 10493 10491 10491 10492 10492 10490 10485 10482 10479
10503 10495 10493 10492 10493 10499 10504 10506 10508 10511 10509 10500 10497 10499 10497 10495 10495 10488 10483 10479 10469 10468 10477 10469 10455 10466 10489 10498 10499 10504 10508 10513 10519 10521 10517 10512 10510 10506 10497 10494 10493 10492 10492 10493 10491 10488 10485 10482 10480 10479 10477 10474 10468 10465 10466 10466 10467 10469 10473 10476 10479 10482 10482 10479 10480 10483 10485 10486 10487 10486 10487 10485 10483 10481 10480 10478 10476 10474 10474 10475 10477 10476 10473 10470 10467 10464
10482 10480 10482 10480 10475 10477 10487 10494 10496 10494 10487 10478 10475 10476 10475 10474 10470 10464 10459 10450 10441 10446 10453 10443 10434 10446 10464 10469 10469 10475 10476 10475 10485 10492 10490 10485 10482 10482 10480 10478 10477 10475 10473 10473 10469 10465 10464 10463 10463 10461 10458 10456 10452 10447 10447 10449 10451 10452 10456 10462 10466 10467 10466 10464 10463 10465 10466 10468 10469 10470 10471 10469 10467 10465 10462 10460 10458 10457 10457 10458 10459 10457 10454 10452 10450 10448
10460 10461 10468 10470 10464 10464 10471 10479 10484 10479 10466 10459 10458 10458 10457 10457 10454 10450 10441 10430 10430 10430 10423 10420 10424 10425 10432 10440 10442 10449 10450 10444 10446 10452 10452 10448 10446 10449 10455 10456 10455 10455 10453 10449 10446 10445 10444 10444 10445 10445 10441 10437 10434 10431 10431 10434 10436 10438 10441 10447 10451 10451 10451 10450 10449 10448 10449 10450 10452 10454 10454 10452 10450 10448 10446 10444 10442 10440 10439 10440 10439 10437 10435 10433 10432 10430
10442 10440 10449 10453 10449 10452 10457 10463 10470 10464 10448 10441 10441 10440 10440 10441 10439 10434 10423 10418 10423 10412 10395 10406 10417 10405 10406 10419 10421 10425 10432 10428 10425 10426 10423 10421 10421 10424 10429 10430 10429 10430 10429 10424 10423 10426 10427 10425 10425 10426 10426 10423 10420 10419 10418 10420 10423 10425 10427 10431 10433 10435 10437 10438 10436 10435 10435 10436 10437 10438 10437 10435 10433 10432 10432 10431 10429 10426 10424 10422 10421 10418 10416 10414 10413 10412
10430 10422 10432 10435 10429 10433 10439 10442 10450 10447 10435 10428 10423 10421 10427 10430 10426 10419 10410 10409 10409 10392 10378 10391 10398 10386 10389 10400 10401 10408 10418 10417 10413 10410 10408 10409 10410 10411 10413 10413 10411 10409 10405 10402 10402 10405 10408 10408 10408 10409 10411 10411 10409 10407 10405 10406 10410 10411 10412 10415 10417 10419 10421 10421 10420 10421 10422 10422 10423 10423 10420 10418 10418 10418 10417 10416 10414 10412 10410 10408 10406 10403 10399 10397 10395 10394
10418 10408 10415 10419 10411 10410 10415 10419 10423 10422 10416 10411 10407 10407 10411 10411 10410 10409 10405 10402 10394 10376 10369 10375 10374 10371 10377 10383 10385 10394 10403 10401 10397 10397 10398 10399 10398 10397 10398 10398 10395 10390 10388 10389 10390 10390 10388 10389 10391 10394 10395 10394 10392 10391 10390 10392 10394 10395 10396 10400 10403 10405 10405 10402 10403 10405 10404 10405 10406 10404 10401 10400 10401 10401 10400 10398 10396 10394 10393 10392 10390 10387 10384 10382 10380 10378
10403 10395 10401 10402 10390 10385 10392 10396 10396 10394 10389 10386 10388 10393 10395 10393 10396 10397 10393 10387 10376 10363 10362 10362 10351 10350 10363 10369 10368 10371 10376 10376 10377 10381 10385 10386 10384 10381 10379 10379 10378 10376 10376 10379 10382 10381 10379 10376 10377 10379 10379 10377 10375 10373 10374 10376 10378 10378 10380 10384 10388 10389 10387 10385 10387 10388 10388 10389 10389 10386 10383 10383 10382 10380 10380 10378 10376 10375 10374 10372 10371 10370 10368 10367 10365 10362
10386 10382 10385 10384 10368 10363 10372 10374 10370 10369 10361 10354 10363 10377 10382 10380 10378 10375 10371 10367 10360 10351 10347 10343 10334 10333 10345 10348 10343 10345 10352 10355 10355 10359 10363 10365 10366 10365 10363 10364 10364 10363 10364 10367 10368 10368 10366 10364 10364 10364 10363 10363 10362 10360 10360 10360 10360 10360 10363 10368 10372 10371 10370 10371 10372 10372 10372 10374 10372 10369 10368 10367 10364 10363 10362 10360 10358 10356 10354 10352 10351 10352 10351 10349 10347 10345
10368 10362 10361 10359 10345 10341 10352 10354 10349 10345 10331 10327 10349 10365 10364 10360 10355 10350 10348 10348 10345 10336 10326 10321 10319 10319 10322 10321 10321 10327 10335 10338 10338 10336 10336 10340 10347 10350 10350 10350 10349 10348 10349 10350 10350 10350 10348 10347 10348 10348 10348 10347 10346 10346 10346 10345 10343 10345 10348 10351 10354 10355 10356 10357 10357 10357 10359 10359 10356 10355 10354 10351 10349 10349 10347 10346 10344 10340 10338 10336 10335 10334 10333 10331 10329 10327
10343 10337 10334 10333 10323 10317 10327 10334 10326 10316 10309 10317 10340 10348 10339 10336 10335 10329 10328 10328 10324 10317 10310 10305 10301 10299 10301 10304 10307 10311 10316 10321 10321 10314 10309 10313 10321 10328 10331 10331 10330 10331 10332 10331 10332 10333 10332 10331 10332 10333 10333 10332 10330 10329 10329 10327 10327 10329 10333 10337 10338 10340 10341 10341 10341 10342 10343 10343 10342 10341 10339 10335 10333 10333 10333 10331 10330 10327 10325 10323 10321 10318 10316 10314 10312 10311
10315 10312 10305 10304 10299 10293 10304 10311 10296 10289 10301 10314 10319 10317 10314 10316 10316 10311 10310 10310 10303 10296 10297 10294 10283 10280 10284 10288 10290 10291 10296 10302 10301 10292 10290 10292 10294 10300 10308 10311 10312 10313 10315 10316 10316 10317 10316 10316 10317 10319 10319 10318 10316 10315 10313 10311 10309 10311 10316 10321 10323 10325 10326 10326 10326 10327 10327 10327 10327 10324 10320 10317 10316 10316 10317 10316 10315 10314 10312 10310 10307 10305 10302 10300 10298 10296
10294 10289 10281 10278 10277 10274 10279 10283 10272 10272 10290 10296 10289 10289 10292 10292 10292 10291 10290 10291 10285 10279 10280 10277 10269 10267 10269 10269 10272 10275 10277 10282 10280 10273 10273 10275 10274 10279 10286 10289 10292 10294 10297 10300 10301 10302 10302 10301 10302 10304 10304 10303 10302 10300 10299 10295 10293 10295 10299 10303 10304 10305 10307 10309 10310 10312 10312 10311 10310 10306 10302 10301 10301 10302 10302 10301 10301 10300 10298 10296 10294 10291 10289 10286 10284 10282
10275 10267 10262 10259 10258 10256 10256 10257 10257 10258 10266 10270 10269 10269 10269 10267 10269 10269 10266 10265 10264 10261 10259 10257 10254 10254 10254 10253 10255 10257 10260 10266 10265 10258 10256 10258 10259 10262 10266 10269 10272 10275 10278 10282 10285 10287 10288 10287 10287 10288 10289 10288 10285 10283 10282 10280 10278 10280 10283 10284 10283 10284 10286 10290 10293 10295 10295 10294 10292 10289 10287 10287 10287 10287 10287 10286 10286 10284 10282 10280 10279 10277 10275 10272 10270 10268
10257 10249 10247 10241 10238 10240 10238 10234 10237 10239 10240 10247 10253 10252 10248 10247 10249 10249 10243 10239 10238 10237 10236 10237 10238 10239 10240 10238 10238 10240 10244 10249 10252 10248 10244 10241 10242 10244 10248 10251 10254 10256 10259 10262 10265 10268 10270 10270 10271 10271 10271 10272 10269 10265 10265 10265 10263 10264 10267 10267 10266 10266 10267 10270 10274 10276 10277 10277 10274 10271 10271 10272 10272 10271 10271 10271 10270 10268 10267 10265 10264 10263 10260 10257 10255 10254
10242 10235 10231 10223 10220 10225 10223 10215 10217 10220 10218 10222 10230 10234 10234 10230 10228 10230 10225 10215 10214 10214 10212 10212 10214 10218 10221 10223 10223 10225 10226 10228 10234 10238 10234 10228 10228 10230 10231 10232 10235 10237 10239 10241 10244 10247 10250 10251 10253 10253 10253 10254 10253 10250 10248 10249 10249 10250 10250 10251 10250 10249 10249 10251 10254 10257 10259 10258 10256 10254 10255 10255 10255 10255 10255 10254 10253 10252 10251 10250 10248 10247 10245 10243 10242 10241
10228 10221 10215 10208 10204 10208 10206 10197 10197 10200 10197 10199 10207 10215 10219 10216 10211 10208 10201 10196 10198 10198 10192 10189 10191 10192 10197 10201 10204 10207 10207 10207 10213 10218 10218 10215 10216 10216 10215 10216 10217 10218 10220 10222 10223 10226 10230 10233 10234 10235 10235 10235 10236 10235 10233 10233 10234 10234 10234 10235 10234 10233 10233 10235 10237 10239 10240 10239 10239 10239 10239 10239 10240 10240 10239 10238 10237 10236 10235 10234 10233 10232 10232 10230 10228 10227
10218 10210 10202 10195 10191 10192 10188 10180 10179 10179 10176 10179 10185 10192 10199 10201 10194 10184 10178 10181 10188 10186 10178 10175 10173 10170 10171 10174 10178 10183 10185 10187 10191 10195 10196 10198 10199 10199 10198 10198 10200 10202 10202 10203 10204 10205 10210 10214 10216 10217 10217 10216 10216 10217 10217 10216 10217 10217 10217 10218 10218 10217 10218 10220 10221 10221 10221 10222 10222 10223 10224 10224 10224 10224 10223 10223 10222 10220 10219 10220 10220 10219 10218 10216 10215 10213
10206 10198 10192 10188 10181 10176 10171 10165 10163 10164 10165 10166 10165 10168 10175 10175 10167 10160 10158 10162 10169 10171 10168 10164 10160 10156 10154 10154 10155 10158 10162 10166 10169 10171 10172 10175 10178 10180 10181 10179 10181 10183 10184 10185 10186 10187 10189 10193 10195 10197 10199 10199 10197 10197 10197 10197 10198 10199 10200 10202 10201 10200 10202 10203 10203 10203 10205 10205 10206 10206 10207 10209 10209 10208 10209 10208 10206 10205 10204 10206 10207 10206 10204 10202 10201 10199
10186 10179 10179 10180 10171 10160 10156 10153 10150 10153 10160 10160 10150 10147 10152 10147 10138 10138 10141 10141 10143 10149 10152 10150 10145 10141 10140 10141 10141 10140 10141 10146 10149 10150 10151 10153 10155 10159 10162 10163 10164 10165 10165 10166 10168 10170 10171 10175 10177 10177 10178 10179 10177 10177 10178 10179 10179 10180 10182 10183 10183 10182 10184 10185 10184 10185 10187 10189 10190 10190 10190 10192 10192 10192 10193 10193 10191 10190 10190 10192 10193 10191 10190 10188 10186 10184
10165 10159 10158 10159 10153 10143 10141 10145 10146 10143 10144 10145 10137 10132 10132 10125 10117 10117 10120 10122 10124 10129 10131 10131 10128 10124 10122 10125 10127 10125 10123 10124 10127 10131 10134 10136 10137 10138 10141 10144 10146 10147 10148 10148 10148 10149 10152 10156 10160 10161 10159 10158 10157 10156 10158 10159 10160 10162 10163 10163 10162 10162 10164 10165 10165 10166 10169 10170 10172 10173 10173 10174 10174 10172 10172 10174 10175 10175 10176 10177 10177 10176 10175 10173 10171 10169
10142 10141 10134 10130 10129 10127 10124 10131 10138 10130 10120 10121 10123 10118 10113 10108 10103 10100 10099 10104 10109 10111 10110 10109 10110 10109 10107 10106 10109 10111 10110 10108 10108 10111 10115 10119 10122 10123 10123 10124 10125 10126 10128 10130 10131 10130 10130 10134 10140 10143 10142 10140 10137 10135 10137 10138 10139 10143 10145 10143 10142 10142 10143 10145 10147 10148 10149 10149 10151 10153 10154 10156 10156 10154 10153 10154 10155 10158 10160 10160 10160 10159 10158 10157 10156 10154
10124 10122 10109 10101 10105 10107 10106 10113 10119 10108 10099 10105 10107 10101 10093 10088 10088 10088 10086 10089 10092 10093 10092 10091 10090 10091 10090 10088 10089 10093 10095 10096 10096 10097 10098 10099 10102 10106 10107 10107 10107 10106 10106 10109 10112 10112 10111 10113 10117 10121 10122 10122 10118 10116 10117 10119 10120 10124 10126 10124 10123 10124 10126 10128 10130 10131 10131 10131 10131 10133 10135 10136 10136 10136 10136 10136 10137 10141 10143 10143 10143 10142 10140 10139 10138 10137
10113 10101 10084 10081 10086 10084 10085 10096 10095 10081 10080 10089 10089 10084 10077 10069 10068 10073 10074 10073 10074 10074 10076 10076 10074 10073 10073 10071 10072 10073 10077 10080 10081 10081 10083 10083 10082 10086 10087 10087 10088 10088 10087 10088 10091 10092 10092 10093 10096 10099 10102 10103 10102 10099 10099 10101 10104 10106 10107 10106 10106 10107 10109 10111 10113 10115 10116 10115 10115 10116 10117 10118 10118 10117 10117 10118 10120 10124 10127 10128 10127 10127 10125 10123 10121 10120
10097 10083 10068 10067 10067 10062 10066 10079 10074 10058 10058 10066 10066 10067 10065 10057 10053 10056 10057 10057 10058 10057 10058 10058 10057 10057 10057 10057 10057 10056 10059 10063 10063 10062 10064 10066 10065 10065 10067 10067 10068 10069 10069 10071 10072 10073 10073 10074 10075 10078 10081 10085 10087 10085 10083 10085 10088 10089 10089 10089 10090 10091 10093 10095 10096 10097 10099 10100 10100 10101 10102 10101 10101 10100 10099 10099 10101 10106 10109 10111 10112 10112 10110 10108 10106 10104
10071 10066 10061 10052 10043 10045 10055 10059 10049 10038 10042 10048 10046 10043 10043 10043 10041 10040 10040 10042 10043 10041 10040 10041 10041 10041 10041 10042 10042 10041 10041 10045 10046 10043 10043 10046 10048 10048 10048 10048 10049 10049 10050 10052 10053 10054 10056 10056 10056 10057 10060 10066 10069 10068 10067 10068 10069 10069 10070 10070 10071 10073 10076 10078 10078 10079 10081 10082 10084 10085 10086 10085 10084 10083 10082 10082 10084 10088 10091 10093 10095 10096 10095 10093 10091 10089
10045 10044 10050 10039 10027 10036 10045 10038 10026 10020 10026 10034 10031 10022 10018 10020 10022 10023 10024 10026 10026 10024 10025 10026 10026 10027 10026 10026 10026 10025 10024 10027 10029 10026 10025 10027 10030 10030 10030 10030 10030 10031 10032 10033 10033 10034 10035 10036 10036 10037 10041 10046 10048 10047 10047 10048 10049 10050 10050 10049 10050 10053 10055 10058 10059 10060 10063 10065 10066 10068 10069 10069 10070 10068 10067 10067 10068 10071 10073 10076 10078 10079 10079 10079 10077 10074
10029 10025 10029 10023 10018 10024 10027 10019 10012 10008 10009 10017 10017 10008 10002 10000 10000 10002 10005 10006 10007 10009 10010 10011 10012 10013 10011 10010 10008 10007 10008 10010 10012 10010 10008 10010 10012 10012 10012 10012 10012 10013 10014 10014 10012 10012 10013 10014 10016 10019 10021 10025 10027 10027 10028 10029 10031 10032 10032 10030 10030 10031 10033 10036 10040 10042 10046 10048 10050 10051 10051 10052 10054 10055 10053 10052 10052 10054 10057 10059 10061 10062 10063 10062 10061 10059